Darstellungsparameter: Aktuell verwendete Einstellungen:
Skalierung der Graphiken ... ?
xyx+y,   Skalierungsfaktor:      Skalierung: Modus: x, Faktor: 1
Darstellungszeitraum ... ?
Vom - - bis: - -   Zeitraum: 12.05.2010 - 18.05.2010
Min/Max/Avg-Anzeige ... ?
Zeige MMA aktuell
Zeige MMA Monat
Zeige MMA alles
Zeige --A aktuell
Zeige --A Monat
Zeige --A alles
Keine MMA-Anzeige
MMA:
Average (ber die Originaldaten)
MMA-Basis: 23.02.2003 - 19.05.2010
Quicknavigation für Darstellung... ?
Tage:      1T, 2T, 3T, 5T -1T -2T -3T -5T +1T +2T +3T +5T
Wochen: 1W, 2W, 3W -1W -2W -3W +1W +2W +3W
Monate: 1M, 3M, 6M -1M -3M -6M +1M +3M +6M
Jahre:    1J, 3J, 5J, 10J -1J -3J -5J -10J +1J +3J +5J +10J
Nutze für die Darstellung ... ?
Originaldaten oder Mittelwerte auf ...
Stundenbasis Tagesbasis Wochenbasis
Monatsbasis Jahresbasis      Datenbasis: Original-Daten
Darstellen als:
Statistik (Auto) Statistik J:M      Darstellung:
Zur Graphik,    zurück zur Übersicht aller Sensoren.
 
Tabellarische Datenbersicht: ?
 
Sensor: Nr:Datum:Temp:Abs-Feuchte:Windchill:Wind:
Aussen-T/F 1 12-05-2010 00:04:03 9.7 C 8.67 g/m*3 9.7 C 0 km/h
2 12-05-2010 00:16:03 9.6 C 8.61 g/m*3 9.6 C 0 km/h
3 12-05-2010 00:28:03 9.1 C 8.34 g/m*3 9.1 C 0 km/h
4 12-05-2010 00:40:03 9.1 C 8.34 g/m*3 9.1 C 0 km/h
5 12-05-2010 00:52:03 9.1 C 8.34 g/m*3 9.1 C 0 km/h
6 12-05-2010 01:04:03 9.1 C 8.34 g/m*3 9.1 C 0 km/h
7 12-05-2010 01:16:03 8.8 C 8.27 g/m*3 8.8 C 0 km/h
8 12-05-2010 01:28:04 8.5 C 8.03 g/m*3 8.5 C 0 km/h
9 12-05-2010 01:40:04 8.4 C 7.97 g/m*3 8.4 C 0 km/h
10 12-05-2010 01:52:04 7.8 C 7.75 g/m*3 7.8 C 0 km/h
11 12-05-2010 02:04:04 7.5 C 7.52 g/m*3 7.5 C 0 km/h
12 12-05-2010 02:16:04 7.8 C 7.75 g/m*3 7.8 C 0 km/h
13 12-05-2010 02:28:04 7.9 C 7.8 g/m*3 7.9 C 0 km/h
14 12-05-2010 02:40:04 7.9 C 7.8 g/m*3 7.9 C 0 km/h
15 12-05-2010 02:52:04 7.5 C 7.6 g/m*3 7.5 C 0 km/h
16 12-05-2010 03:04:04 7.3 C 7.43 g/m*3 7.3 C 0 km/h
17 12-05-2010 03:16:04 7.2 C 7.38 g/m*3 7.2 C 0 km/h
18 12-05-2010 03:28:04 7.1 C 7.33 g/m*3 7.1 C 0 km/h
19 12-05-2010 03:40:04 7 C 7.28 g/m*3 7 C 0 km/h
20 12-05-2010 03:52:04 7 C 7.21 g/m*3 7 C 0 km/h
21 12-05-2010 04:04:04 6.9 C 7.16 g/m*3 6.9 C 0 km/h
22 12-05-2010 04:16:04 6.9 C 7.08 g/m*3 6.9 C 0 km/h
23 12-05-2010 04:28:04 6.9 C 7.01 g/m*3 6.9 C 0 km/h
24 12-05-2010 04:40:04 6.9 C 6.93 g/m*3 6.9 C 0 km/h
25 12-05-2010 04:52:04 6.8 C 6.81 g/m*3 6.8 C 0 km/h
Sensor: Nr:Datum:Temp:Abs-Feuchte:Windchill:Wind:
Aussen-T/F 26 12-05-2010 05:04:04 6.8 C 6.73 g/m*3 6.8 C 0 km/h
27 12-05-2010 05:16:04 6.8 C 6.65 g/m*3 6.8 C 0 km/h
28 12-05-2010 05:28:04 6.8 C 6.65 g/m*3 6.8 C 0 km/h
29 12-05-2010 05:40:05 6.8 C 6.65 g/m*3 6.8 C 0 km/h
30 12-05-2010 05:52:05 6.8 C 6.65 g/m*3 6.8 C 0 km/h
31 12-05-2010 06:04:05 6.7 C 6.61 g/m*3 6.7 C 0 km/h
32 12-05-2010 06:16:05 6.8 C 6.58 g/m*3 6.8 C 0 km/h
33 12-05-2010 06:28:05 6.8 C 6.5 g/m*3 6.8 C 0 km/h
34 12-05-2010 06:40:05 6.8 C 6.58 g/m*3 6.8 C 0 km/h
35 12-05-2010 06:52:05 6.8 C 6.58 g/m*3 6.8 C 0 km/h
36 12-05-2010 07:04:03 6.9 C 6.54 g/m*3 6.9 C 0 km/h
37 12-05-2010 07:16:03 7 C 6.59 g/m*3 7 C 0 km/h
38 12-05-2010 07:28:03 7.1 C 6.71 g/m*3 7.1 C 0 km/h
39 12-05-2010 07:40:03 7.2 C 6.67 g/m*3 7.2 C 0 km/h
40 12-05-2010 07:52:02 7.2 C 6.59 g/m*3 7.2 C 0 km/h
41 12-05-2010 08:04:02 7.3 C 6.56 g/m*3 7.3 C 0 km/h
42 12-05-2010 08:16:02 7.6 C 6.69 g/m*3 7.6 C 0 km/h
43 12-05-2010 08:28:02 7.7 C 6.57 g/m*3 7.7 C 0 km/h
44 12-05-2010 08:40:02 7.8 C 6.45 g/m*3 7.8 C 0 km/h
45 12-05-2010 08:52:01 7.8 C 6.45 g/m*3 7.8 C 0 km/h
46 12-05-2010 09:04:02 8 C 6.37 g/m*3 8 C 0 km/h
47 12-05-2010 09:16:01 8.3 C 6.41 g/m*3 8.3 C 0 km/h
48 12-05-2010 09:28:01 8.4 C 6.19 g/m*3 8.4 C 0 km/h
49 12-05-2010 09:40:01 8.3 C 6.07 g/m*3 8.3 C 0 km/h
50 12-05-2010 09:52:01 8.4 C 6.11 g/m*3 8.4 C 0 km/h
Sensor: Nr:Datum:Temp:Abs-Feuchte:Windchill:Wind:
Aussen-T/F 51 12-05-2010 10:04:02 8.4 C 6.02 g/m*3 8.4 C 0 km/h
52 12-05-2010 10:16:01 8.6 C 6.1 g/m*3 8.6 C 0 km/h
53 12-05-2010 10:28:01 8.6 C 6.02 g/m*3 8.6 C 0 km/h
54 12-05-2010 10:40:01 8.7 C 5.97 g/m*3 8.7 C 0 km/h
55 12-05-2010 10:52:01 8.7 C 5.79 g/m*3 8.7 C 0 km/h
56 12-05-2010 11:04:01 8.7 C 5.79 g/m*3 8.7 C 0 km/h
57 12-05-2010 11:16:02 8.9 C 5.87 g/m*3 8.9 C 0 km/h
58 12-05-2010 11:28:02 8.9 C 5.61 g/m*3 8.9 C 0 km/h
59 12-05-2010 11:40:01 9.3 C 5.57 g/m*3 9.3 C 0 km/h
60 12-05-2010 11:52:01 10.1 C 5.67 g/m*3 10.1 C 0 km/h
61 12-05-2010 12:04:01 10 C 5.54 g/m*3 10 C 0 km/h
62 12-05-2010 12:16:02 9.7 C 5.35 g/m*3 9.7 C 0 km/h
63 12-05-2010 12:28:02 9.9 C 5.51 g/m*3 9.9 C 0 km/h
64 12-05-2010 12:40:01 10.5 C 5.33 g/m*3 10.5 C 0 km/h
65 12-05-2010 12:52:03 10.2 C 5.42 g/m*3 10.2 C 0 km/h
66 12-05-2010 13:04:02 10.5 C 5.43 g/m*3 10.5 C 0 km/h
67 12-05-2010 13:16:02 11.1 C 5.34 g/m*3 11.1 C 0 km/h
68 12-05-2010 13:28:02 10.7 C 5.3 g/m*3 10.7 C 0 km/h
69 12-05-2010 13:40:02 10.4 C 5.2 g/m*3 10.4 C 0 km/h
70 12-05-2010 13:52:02 10.7 C 5.21 g/m*3 10.7 C 0 km/h
71 12-05-2010 14:04:02 10.2 C 5.23 g/m*3 10.2 C 0 km/h
72 12-05-2010 14:16:02 10.2 C 5.23 g/m*3 10.2 C 0 km/h
73 12-05-2010 14:28:02 10.6 C 5.17 g/m*3 10.6 C 0 km/h
74 12-05-2010 14:40:01 10.9 C 5.17 g/m*3 10.9 C 0 km/h
75 12-05-2010 14:52:02 10.7 C 4.81 g/m*3 10.7 C 0 km/h
Sensor: Nr:Datum:Temp:Abs-Feuchte:Windchill:Wind:
Aussen-T/F 76 12-05-2010 15:04:01 11.1 C 5.14 g/m*3 11.1 C 0 km/h
77 12-05-2010 15:16:02 10.8 C 4.94 g/m*3 10.8 C 0 km/h
78 12-05-2010 15:28:02 10.8 C 4.84 g/m*3 10.8 C 0 km/h
79 12-05-2010 15:40:02 10.8 C 5.04 g/m*3 10.8 C 0 km/h
80 12-05-2010 15:52:02 10.7 C 5.11 g/m*3 10.7 C 0 km/h
81 12-05-2010 16:04:02 10.8 C 5.24 g/m*3 10.8 C 0 km/h
82 12-05-2010 16:16:02 10.9 C 5.17 g/m*3 10.9 C 0 km/h
83 12-05-2010 16:28:02 10.7 C 5.3 g/m*3 10.7 C 0 km/h
84 12-05-2010 16:40:02 10.3 C 5.17 g/m*3 10.3 C 0 km/h
85 12-05-2010 16:52:01 9.9 C 5.32 g/m*3 9.9 C 0 km/h
86 12-05-2010 17:04:02 9.6 C 5.22 g/m*3 9.6 C 0 km/h
87 12-05-2010 17:16:01 9.7 C 5.35 g/m*3 9.7 C 0 km/h
88 12-05-2010 17:28:01 9.9 C 5.32 g/m*3 9.9 C 0 km/h
89 12-05-2010 17:40:02 9.9 C 5.32 g/m*3 9.9 C 0 km/h
90 12-05-2010 17:52:02 9.6 C 5.22 g/m*3 9.6 C 0 km/h
91 12-05-2010 18:04:02 9.6 C 5.4 g/m*3 9.6 C 0 km/h
92 12-05-2010 18:16:01 9.3 C 5.39 g/m*3 9.3 C 0 km/h
93 12-05-2010 18:28:01 9.1 C 5.41 g/m*3 9.1 C 0 km/h
94 12-05-2010 18:40:02 9.1 C 5.5 g/m*3 9.1 C 0 km/h
95 12-05-2010 18:52:02 9 C 5.55 g/m*3 9 C 0 km/h
96 12-05-2010 19:04:02 9 C 5.64 g/m*3 9 C 0 km/h
97 12-05-2010 19:16:01 8.8 C 5.66 g/m*3 8.8 C 0 km/h
98 12-05-2010 19:28:01 9 C 5.73 g/m*3 9 C 0 km/h
99 12-05-2010 19:40:02 9 C 5.73 g/m*3 9 C 0 km/h
100 12-05-2010 19:52:02 8.7 C 5.71 g/m*3 8.7 C 0 km/h
Sensor: Nr:Datum:Temp:Abs-Feuchte:Windchill:Wind:
Aussen-T/F 101 12-05-2010 20:04:02 8.6 C 5.76 g/m*3 8.6 C 0 km/h
102 12-05-2010 20:16:02 8.6 C 5.84 g/m*3 8.6 C 0 km/h
103 12-05-2010 20:28:02 8.6 C 5.84 g/m*3 8.6 C 0 km/h
104 12-05-2010 20:40:02 8.5 C 5.81 g/m*3 8.5 C 0 km/h
105 12-05-2010 20:52:02 8.5 C 5.98 g/m*3 8.5 C 0 km/h
106 12-05-2010 21:04:02 8.5 C 5.89 g/m*3 8.5 C 0 km/h
107 12-05-2010 21:16:02 8.4 C 5.94 g/m*3 8.4 C 0 km/h
108 12-05-2010 21:28:02 8.5 C 6.06 g/m*3 8.5 C 0 km/h
109 12-05-2010 21:40:01 8.5 C 6.06 g/m*3 8.5 C 0 km/h
110 12-05-2010 21:52:02 8.3 C 6.07 g/m*3 8.3 C 0 km/h
111 12-05-2010 22:04:01 8 C 6.2 g/m*3 8 C 0 km/h
112 12-05-2010 22:17:03 8 C 6.37 g/m*3 8 C 0 km/h
113 12-05-2010 22:29:03 7.6 C 6.36 g/m*3 7.6 C 0 km/h
114 12-05-2010 22:41:03 7.5 C 6.48 g/m*3 7.5 C 0 km/h
115 12-05-2010 22:53:03 7.7 C 6.65 g/m*3 7.7 C 0 km/h
116 12-05-2010 23:05:03 7.8 C 6.69 g/m*3 7.8 C 0 km/h
117 12-05-2010 23:17:03 7.8 C 6.69 g/m*3 7.8 C 0 km/h
118 12-05-2010 23:29:03 7.8 C 6.69 g/m*3 7.8 C 0 km/h
119 12-05-2010 23:41:04 7.9 C 6.74 g/m*3 7.9 C 0 km/h
120 12-05-2010 23:53:04 7.7 C 6.57 g/m*3 7.7 C 0 km/h
121 13-05-2010 00:05:04 7.7 C 6.57 g/m*3 7.7 C 0 km/h
122 13-05-2010 00:17:04 7.6 C 6.53 g/m*3 7.6 C 0 km/h
123 13-05-2010 00:29:04 7.5 C 6.4 g/m*3 7.5 C 0 km/h
124 13-05-2010 00:41:04 7.6 C 6.44 g/m*3 7.6 C 0 km/h
125 13-05-2010 00:53:04 7.5 C 6.4 g/m*3 7.5 C 0 km/h
Sensor: Nr:Datum:Temp:Abs-Feuchte:Windchill:Wind:
Aussen-T/F 126 13-05-2010 01:05:04 7.4 C 6.36 g/m*3 7.4 C 0 km/h
127 13-05-2010 01:17:04 7.3 C 6.48 g/m*3 7.3 C 0 km/h
128 13-05-2010 01:29:04 7.3 C 6.48 g/m*3 7.3 C 0 km/h
129 13-05-2010 01:41:04 7.3 C 6.56 g/m*3 7.3 C 0 km/h
130 13-05-2010 01:53:04 7.4 C 6.68 g/m*3 7.4 C 0 km/h
131 13-05-2010 02:05:04 7.5 C 6.72 g/m*3 7.5 C 0 km/h
132 13-05-2010 02:17:04 7.4 C 6.6 g/m*3 7.4 C 0 km/h
133 13-05-2010 02:29:04 7.4 C 6.52 g/m*3 7.4 C 0 km/h
134 13-05-2010 02:41:04 7.4 C 6.52 g/m*3 7.4 C 0 km/h
135 13-05-2010 02:53:04 7.4 C 6.52 g/m*3 7.4 C 0 km/h
136 13-05-2010 03:05:04 7.4 C 6.52 g/m*3 7.4 C 0 km/h
137 13-05-2010 03:17:04 7.4 C 6.52 g/m*3 7.4 C 0 km/h
138 13-05-2010 03:29:04 7.3 C 6.48 g/m*3 7.3 C 0 km/h
139 13-05-2010 03:41:05 7.3 C 6.56 g/m*3 7.3 C 0 km/h
140 13-05-2010 03:53:05 7.1 C 6.47 g/m*3 7.1 C 0 km/h
141 13-05-2010 04:05:05 6.9 C 6.54 g/m*3 6.9 C 0 km/h
142 13-05-2010 04:17:05 7 C 6.51 g/m*3 7 C 0 km/h
143 13-05-2010 04:29:05 7.1 C 6.63 g/m*3 7.1 C 0 km/h
144 13-05-2010 04:41:05 7.1 C 6.63 g/m*3 7.1 C 0 km/h
145 13-05-2010 04:53:05 6.9 C 6.62 g/m*3 6.9 C 0 km/h
146 13-05-2010 05:05:05 6.9 C 6.7 g/m*3 6.9 C 0 km/h
147 13-05-2010 05:17:05 6.8 C 6.65 g/m*3 6.8 C 0 km/h
148 13-05-2010 05:29:05 6.8 C 6.65 g/m*3 6.8 C 0 km/h
149 13-05-2010 05:41:05 6.7 C 6.61 g/m*3 6.7 C 0 km/h
150 13-05-2010 05:53:05 6.6 C 6.64 g/m*3 6.6 C 0 km/h
Sensor: Nr:Datum:Temp:Abs-Feuchte:Windchill:Wind:
Aussen-T/F 151 13-05-2010 06:05:05 6.6 C 6.64 g/m*3 6.6 C 0 km/h
152 13-05-2010 06:17:05 6.7 C 6.69 g/m*3 6.7 C 0 km/h
153 13-05-2010 06:29:05 6.7 C 6.69 g/m*3 6.7 C 0 km/h
154 13-05-2010 06:41:05 6.6 C 6.64 g/m*3 6.6 C 0 km/h
155 13-05-2010 06:53:05 6.6 C 6.64 g/m*3 6.6 C 0 km/h
156 13-05-2010 07:05:05 6.7 C 6.76 g/m*3 6.7 C 0 km/h
157 13-05-2010 07:17:05 6.7 C 6.76 g/m*3 6.7 C 0 km/h
158 13-05-2010 07:29:05 6.9 C 6.77 g/m*3 6.9 C 0 km/h
159 13-05-2010 07:41:05 6.9 C 6.7 g/m*3 6.9 C 0 km/h
160 13-05-2010 07:53:01 6.8 C 6.5 g/m*3 6.8 C 0 km/h
161 13-05-2010 08:05:01 6.8 C 6.42 g/m*3 6.8 C 0 km/h
162 13-05-2010 08:17:02 6.8 C 6.35 g/m*3 6.8 C 0 km/h
163 13-05-2010 08:29:02 6.9 C 6.31 g/m*3 6.9 C 0 km/h
164 13-05-2010 08:41:01 7 C 6.12 g/m*3 7 C 0 km/h
165 13-05-2010 08:53:02 7.2 C 6.12 g/m*3 7.2 C 0 km/h
166 13-05-2010 09:05:01 7.5 C 6.24 g/m*3 7.5 C 0 km/h
167 13-05-2010 09:17:01 7.8 C 6.2 g/m*3 7.8 C 0 km/h
168 13-05-2010 09:29:01 7.9 C 6 g/m*3 7.9 C 0 km/h
169 13-05-2010 09:41:01 8.2 C 5.86 g/m*3 8.2 C 0 km/h
170 13-05-2010 09:53:02 8.3 C 5.65 g/m*3 8.3 C 0 km/h
171 13-05-2010 10:05:01 8.9 C 5.69 g/m*3 8.9 C 0 km/h
172 13-05-2010 10:17:02 9.1 C 5.41 g/m*3 9.1 C 0 km/h
173 13-05-2010 10:29:02 9.7 C 5.62 g/m*3 9.7 C 0 km/h
174 13-05-2010 10:41:02 9.7 C 5.16 g/m*3 9.7 C 0 km/h
175 13-05-2010 10:53:01 9.9 C 5.23 g/m*3 9.9 C 0 km/h
Sensor: Nr:Datum:Temp:Abs-Feuchte:Windchill:Wind:
Aussen-T/F 176 13-05-2010 11:05:02 10.2 C 5.23 g/m*3 10.2 C 0 km/h
177 13-05-2010 11:17:01 10 C 4.98 g/m*3 10 C 0 km/h
178 13-05-2010 11:29:01 10.1 C 4.92 g/m*3 10.1 C 0 km/h
179 13-05-2010 11:41:02 9.5 C 5.01 g/m*3 9.5 C 0 km/h
180 13-05-2010 11:53:02 9.7 C 5.16 g/m*3 9.7 C 0 km/h
181 13-05-2010 12:05:02 9.7 C 4.89 g/m*3 9.7 C 0 km/h
182 13-05-2010 12:17:01 9.5 C 4.92 g/m*3 9.5 C 0 km/h
183 13-05-2010 12:29:01 10.2 C 4.95 g/m*3 10.2 C 0 km/h
184 13-05-2010 12:41:02 10.1 C 4.63 g/m*3 10.1 C 0 km/h
185 13-05-2010 12:53:02 10.8 C 4.84 g/m*3 10.8 C 0 km/h
186 13-05-2010 13:05:02 11 C 4.8 g/m*3 11 C 0 km/h
187 13-05-2010 13:17:01 10.1 C 4.92 g/m*3 10.1 C 0 km/h
188 13-05-2010 13:29:01 9.3 C 4.94 g/m*3 9.3 C 0 km/h
189 13-05-2010 13:41:02 8.9 C 5.08 g/m*3 8.9 C 0 km/h
190 13-05-2010 13:53:02 9.4 C 5.16 g/m*3 9.4 C 0 km/h
191 13-05-2010 14:05:02 10 C 5.17 g/m*3 10 C 0 km/h
192 13-05-2010 14:17:02 10.5 C 5.14 g/m*3 10.5 C 0 km/h
193 13-05-2010 14:29:02 10.9 C 5.07 g/m*3 10.9 C 0 km/h
194 13-05-2010 14:41:02 10.6 C 4.78 g/m*3 10.6 C 0 km/h
195 13-05-2010 14:53:01 11 C 4.9 g/m*3 11 C 0 km/h
196 13-05-2010 15:05:02 11 C 4.8 g/m*3 11 C 0 km/h
197 13-05-2010 15:17:02 10.5 C 4.85 g/m*3 10.5 C 0 km/h
198 13-05-2010 15:29:02 10 C 4.79 g/m*3 10 C 0 km/h
199 13-05-2010 15:41:02 9.8 C 5.1 g/m*3 9.8 C 0 km/h
200 13-05-2010 15:53:02 9.2 C 5.36 g/m*3 9.2 C 0 km/h
Sensor: Nr:Datum:Temp:Abs-Feuchte:Windchill:Wind:
Aussen-T/F 201 13-05-2010 16:05:01 8.7 C 5.53 g/m*3 8.7 C 0 km/h
202 13-05-2010 16:17:02 8.5 C 5.81 g/m*3 8.5 C 0 km/h
203 13-05-2010 16:29:02 8.6 C 6.02 g/m*3 8.6 C 0 km/h
204 13-05-2010 16:41:01 8.6 C 6.19 g/m*3 8.6 C 0 km/h
205 13-05-2010 16:53:02 8.9 C 6.57 g/m*3 8.9 C 0 km/h
206 13-05-2010 17:05:01 8.4 C 6.19 g/m*3 8.4 C 0 km/h
207 13-05-2010 17:17:02 8.2 C 6.28 g/m*3 8.2 C 0 km/h
208 13-05-2010 17:29:03 8.2 C 6.36 g/m*3 8.2 C 0 km/h
209 13-05-2010 17:41:01 8.2 C 6.53 g/m*3 8.2 C 0 km/h
210 13-05-2010 17:53:02 8.1 C 6.49 g/m*3 8.1 C 0 km/h
211 13-05-2010 18:05:02 8.3 C 6.66 g/m*3 8.3 C 0 km/h
212 13-05-2010 18:17:02 9 C 7.05 g/m*3 9 C 0 km/h
213 13-05-2010 18:29:02 8.9 C 7.1 g/m*3 8.9 C 0 km/h
214 13-05-2010 18:41:02 8.7 C 7.01 g/m*3 8.7 C 0 km/h
215 13-05-2010 18:53:02 7.9 C 6.74 g/m*3 7.9 C 0 km/h
216 13-05-2010 19:05:02 7.7 C 6.81 g/m*3 7.7 C 0 km/h
217 13-05-2010 19:17:01 7.5 C 6.8 g/m*3 7.5 C 0 km/h
218 13-05-2010 19:29:01 7.3 C 6.72 g/m*3 7.3 C 0 km/h
219 13-05-2010 19:41:02 7.3 C 6.79 g/m*3 7.3 C 0 km/h
220 13-05-2010 19:53:02 7.2 C 6.75 g/m*3 7.2 C 0 km/h
221 13-05-2010 20:05:02 7.3 C 6.87 g/m*3 7.3 C 0 km/h
222 13-05-2010 20:17:02 7.4 C 6.92 g/m*3 7.4 C 0 km/h
223 13-05-2010 20:29:02 7.4 C 7 g/m*3 7.4 C 0 km/h
224 13-05-2010 20:41:02 7.5 C 7.04 g/m*3 7.5 C 0 km/h
225 13-05-2010 20:53:01 7.6 C 7.09 g/m*3 7.6 C 0 km/h
Sensor: Nr:Datum:Temp:Abs-Feuchte:Windchill:Wind:
Aussen-T/F 226 13-05-2010 21:05:02 7.5 C 7.12 g/m*3 7.5 C 0 km/h
227 13-05-2010 21:17:01 7.5 C 7.12 g/m*3 7.5 C 0 km/h
228 13-05-2010 21:29:01 7.4 C 7.08 g/m*3 7.4 C 0 km/h
229 13-05-2010 21:41:01 7.4 C 7.08 g/m*3 7.4 C 0 km/h
230 13-05-2010 21:53:01 7.4 C 7.16 g/m*3 7.4 C 0 km/h
231 13-05-2010 22:05:02 7.4 C 7.16 g/m*3 7.4 C 0 km/h
232 13-05-2010 22:17:01 7.4 C 7.16 g/m*3 7.4 C 0 km/h
233 13-05-2010 22:29:01 7.3 C 7.11 g/m*3 7.3 C 0 km/h
234 13-05-2010 22:41:02 7.2 C 7.06 g/m*3 7.2 C 0 km/h
235 13-05-2010 22:54:02 7.2 C 7.06 g/m*3 7.2 C 0 km/h
236 13-05-2010 23:06:02 7.2 C 7.06 g/m*3 7.2 C 0 km/h
237 13-05-2010 23:18:03 7.3 C 7.11 g/m*3 7.3 C 0 km/h
238 13-05-2010 23:30:03 7.3 C 7.19 g/m*3 7.3 C 0 km/h
239 13-05-2010 23:42:03 7.2 C 7.14 g/m*3 7.2 C 0 km/h
240 13-05-2010 23:54:03 7.2 C 7.14 g/m*3 7.2 C 0 km/h
241 14-05-2010 00:06:03 7 C 7.05 g/m*3 7 C 0 km/h
242 14-05-2010 00:18:03 6.9 C 7.16 g/m*3 6.9 C 0 km/h
243 14-05-2010 00:30:03 6.9 C 7.16 g/m*3 6.9 C 0 km/h
244 14-05-2010 00:42:03 7 C 7.21 g/m*3 7 C 0 km/h
245 14-05-2010 00:54:03 7 C 7.21 g/m*3 7 C 0 km/h
246 14-05-2010 01:06:03 6.9 C 7.24 g/m*3 6.9 C 0 km/h
247 14-05-2010 01:18:03 7 C 7.21 g/m*3 7 C 0 km/h
248 14-05-2010 01:30:03 7.1 C 7.25 g/m*3 7.1 C 0 km/h
249 14-05-2010 01:42:03 7.1 C 7.25 g/m*3 7.1 C 0 km/h
250 14-05-2010 01:54:03 7.1 C 7.25 g/m*3 7.1 C 0 km/h
Sensor: Nr:Datum:Temp:Abs-Feuchte:Windchill:Wind:
Aussen-T/F 251 14-05-2010 02:06:03 7.1 C 7.25 g/m*3 7.1 C 0 km/h
252 14-05-2010 02:18:03 7 C 7.21 g/m*3 7 C 0 km/h
253 14-05-2010 02:30:03 6.9 C 7.24 g/m*3 6.9 C 0 km/h
254 14-05-2010 02:42:03 7 C 7.21 g/m*3 7 C 0 km/h
255 14-05-2010 02:54:03 7 C 7.28 g/m*3 7 C 0 km/h
256 14-05-2010 03:06:03 7 C 7.28 g/m*3 7 C 0 km/h
257 14-05-2010 03:18:03 6.9 C 7.24 g/m*3 6.9 C 0 km/h
258 14-05-2010 03:30:04 7 C 7.28 g/m*3 7 C 0 km/h
259 14-05-2010 03:42:04 7 C 7.28 g/m*3 7 C 0 km/h
260 14-05-2010 03:54:04 7 C 7.28 g/m*3 7 C 0 km/h
261 14-05-2010 04:06:04 7 C 7.28 g/m*3 7 C 0 km/h
262 14-05-2010 04:18:04 7 C 7.28 g/m*3 7 C 0 km/h
263 14-05-2010 04:30:04 6.9 C 7.24 g/m*3 6.9 C 0 km/h
264 14-05-2010 04:42:04 6.9 C 7.24 g/m*3 6.9 C 0 km/h
265 14-05-2010 04:54:04 6.9 C 7.24 g/m*3 6.9 C 0 km/h
266 14-05-2010 05:06:04 6.8 C 7.19 g/m*3 6.8 C 0 km/h
267 14-05-2010 05:18:04 6.9 C 7.24 g/m*3 6.9 C 0 km/h
268 14-05-2010 05:30:04 6.8 C 7.27 g/m*3 6.8 C 0 km/h
269 14-05-2010 05:42:04 6.9 C 7.31 g/m*3 6.9 C 0 km/h
270 14-05-2010 05:54:04 7 C 7.28 g/m*3 7 C 0 km/h
271 14-05-2010 06:06:04 7.1 C 7.33 g/m*3 7.1 C 0 km/h
272 14-05-2010 06:18:04 7.1 C 7.33 g/m*3 7.1 C 0 km/h
273 14-05-2010 06:30:04 7 C 7.28 g/m*3 7 C 0 km/h
274 14-05-2010 06:42:04 7.1 C 7.33 g/m*3 7.1 C 0 km/h
275 14-05-2010 06:54:04 7.2 C 7.38 g/m*3 7.2 C 0 km/h
Sensor: Nr:Datum:Temp:Abs-Feuchte:Windchill:Wind:
Aussen-T/F 276 14-05-2010 07:06:02 7.2 C 7.3 g/m*3 7.2 C 0 km/h
277 14-05-2010 07:18:02 7.3 C 7.35 g/m*3 7.3 C 0 km/h
278 14-05-2010 07:30:02 7.5 C 7.44 g/m*3 7.5 C 0 km/h
279 14-05-2010 07:42:02 7.5 C 7.44 g/m*3 7.5 C 0 km/h
280 14-05-2010 07:54:01 7.5 C 7.36 g/m*3 7.5 C 0 km/h
281 14-05-2010 08:06:02 7.7 C 7.38 g/m*3 7.7 C 0 km/h
282 14-05-2010 08:18:01 7.9 C 7.47 g/m*3 7.9 C 0 km/h
283 14-05-2010 08:30:01 8.1 C 7.41 g/m*3 8.1 C 0 km/h
284 14-05-2010 08:42:02 7.9 C 7.31 g/m*3 7.9 C 0 km/h
285 14-05-2010 08:54:02 8 C 7.19 g/m*3 8 C 0 km/h
286 14-05-2010 09:06:02 8 C 7.19 g/m*3 8 C 0 km/h
287 14-05-2010 09:18:01 7.9 C 7.15 g/m*3 7.9 C 0 km/h
288 14-05-2010 09:30:01 8 C 7.03 g/m*3 8 C 0 km/h
289 14-05-2010 09:42:02 8.6 C 7.39 g/m*3 8.6 C 0 km/h
290 14-05-2010 09:54:02 8.4 C 7.13 g/m*3 8.4 C 0 km/h
291 14-05-2010 10:06:02 8.7 C 7.18 g/m*3 8.7 C 0 km/h
292 14-05-2010 10:18:02 9.4 C 7.33 g/m*3 9.4 C 0 km/h
293 14-05-2010 10:30:02 9.5 C 7.01 g/m*3 9.5 C 0 km/h
294 14-05-2010 10:42:02 10 C 7.24 g/m*3 10 C 0 km/h
295 14-05-2010 10:54:01 10.3 C 7.18 g/m*3 10.3 C 0 km/h
296 14-05-2010 11:06:02 11 C 7.31 g/m*3 11 C 0 km/h
297 14-05-2010 11:18:02 10.5 C 6.6 g/m*3 10.5 C 0 km/h
298 14-05-2010 11:30:02 10.1 C 6.34 g/m*3 10.1 C 0 km/h
299 14-05-2010 11:42:02 10.4 C 6.75 g/m*3 10.4 C 0 km/h
300 14-05-2010 11:54:02 9.9 C 6.82 g/m*3 9.9 C 0 km/h
Sensor: Nr:Datum:Temp:Abs-Feuchte:Windchill:Wind:
Aussen-T/F 301 14-05-2010 12:06:01 9.1 C 6.39 g/m*3 9.1 C 0 km/h
302 14-05-2010 12:18:02 9 C 6.44 g/m*3 9 C 0 km/h
303 14-05-2010 12:30:02 9.3 C 7.1 g/m*3 9.3 C 0 km/h
304 14-05-2010 12:42:01 9.3 C 7.28 g/m*3 9.3 C 0 km/h
305 14-05-2010 12:54:02 9.1 C 7.28 g/m*3 9.1 C 0 km/h
306 14-05-2010 13:06:01 9.3 C 7.46 g/m*3 9.3 C 0 km/h
307 14-05-2010 13:18:01 9.5 C 7.65 g/m*3 9.5 C 0 km/h
308 14-05-2010 13:30:01 9.6 C 7.69 g/m*3 9.6 C 0 km/h
309 14-05-2010 13:42:02 9.7 C 7.74 g/m*3 9.7 C 0 km/h
310 14-05-2010 13:54:02 9.2 C 7.41 g/m*3 9.2 C 0 km/h
311 14-05-2010 14:06:01 9 C 7.41 g/m*3 9 C 0 km/h
312 14-05-2010 14:18:02 9.2 C 7.59 g/m*3 9.2 C 0 km/h
313 14-05-2010 14:30:02 9.5 C 7.74 g/m*3 9.5 C 0 km/h
314 14-05-2010 14:42:02 9.7 C 7.84 g/m*3 9.7 C 0 km/h
315 14-05-2010 14:54:02 10.5 C 8.15 g/m*3 10.5 C 0 km/h
316 14-05-2010 15:06:02 11.2 C 8.21 g/m*3 11.2 C 0 km/h
317 14-05-2010 15:18:01 11.7 C 7.95 g/m*3 11.7 C 0 km/h
318 14-05-2010 15:30:01 12 C 7.67 g/m*3 12 C 0 km/h
319 14-05-2010 15:42:02 12.2 C 7.23 g/m*3 12.2 C 0 km/h
320 14-05-2010 15:54:02 12.2 C 6.91 g/m*3 12.2 C 0 km/h
321 14-05-2010 16:06:02 12.6 C 6.97 g/m*3 12.6 C 0 km/h
322 14-05-2010 16:18:01 12.8 C 7.06 g/m*3 12.8 C 0 km/h
323 14-05-2010 16:30:01 13.3 C 6.93 g/m*3 13.3 C 0 km/h
324 14-05-2010 16:42:02 13.4 C 6.63 g/m*3 13.4 C 0 km/h
325 14-05-2010 16:54:02 12.8 C 6.27 g/m*3 12.8 C 0 km/h
Sensor: Nr:Datum:Temp:Abs-Feuchte:Windchill:Wind:
Aussen-T/F 326 14-05-2010 17:06:02 12.2 C 6.37 g/m*3 12.2 C 0 km/h
327 14-05-2010 17:18:02 11.9 C 6.25 g/m*3 11.9 C 0 km/h
328 14-05-2010 17:30:02 11.4 C 6.77 g/m*3 11.4 C 0 km/h
329 14-05-2010 17:42:02 11 C 6.81 g/m*3 11 C 0 km/h
330 14-05-2010 17:54:02 11.2 C 6.79 g/m*3 11.2 C 0 km/h
331 14-05-2010 18:06:02 11.5 C 6.71 g/m*3 11.5 C 0 km/h
332 14-05-2010 18:18:03 11.8 C 6.74 g/m*3 11.8 C 0 km/h
333 14-05-2010 18:30:03 12 C 6.82 g/m*3 12 C 0 km/h
334 14-05-2010 18:42:02 11.5 C 6.71 g/m*3 11.5 C 0 km/h
335 14-05-2010 18:54:02 11 C 6.81 g/m*3 11 C 0 km/h
336 14-05-2010 19:06:02 10.5 C 6.89 g/m*3 10.5 C 0 km/h
337 14-05-2010 19:18:03 10.3 C 6.99 g/m*3 10.3 C 0 km/h
338 14-05-2010 19:30:03 10.4 C 7.13 g/m*3 10.4 C 0 km/h
339 14-05-2010 19:42:02 10.5 C 6.98 g/m*3 10.5 C 0 km/h
340 14-05-2010 19:54:02 10.6 C 7.03 g/m*3 10.6 C 0 km/h
341 14-05-2010 20:06:02 10.5 C 7.08 g/m*3 10.5 C 0 km/h
342 14-05-2010 20:18:02 10.2 C 6.95 g/m*3 10.2 C 0 km/h
343 14-05-2010 20:30:02 9.9 C 6.91 g/m*3 9.9 C 0 km/h
344 14-05-2010 20:42:02 9.6 C 6.78 g/m*3 9.6 C 0 km/h
345 14-05-2010 20:54:02 9.5 C 6.92 g/m*3 9.5 C 0 km/h
346 14-05-2010 21:06:02 9.3 C 6.83 g/m*3 9.3 C 0 km/h
347 14-05-2010 21:18:02 9.2 C 6.88 g/m*3 9.2 C 0 km/h
348 14-05-2010 21:30:02 9.1 C 6.83 g/m*3 9.1 C 0 km/h
349 14-05-2010 21:42:02 9.1 C 6.92 g/m*3 9.1 C 0 km/h
350 14-05-2010 21:54:02 9 C 6.88 g/m*3 9 C 0 km/h
Sensor: Nr:Datum:Temp:Abs-Feuchte:Windchill:Wind:
Aussen-T/F 351 14-05-2010 22:06:02 9.1 C 7.01 g/m*3 9.1 C 0 km/h
352 14-05-2010 22:18:02 9.1 C 7.01 g/m*3 9.1 C 0 km/h
353 14-05-2010 22:30:02 9.1 C 7.1 g/m*3 9.1 C 0 km/h
354 14-05-2010 22:42:02 9.1 C 7.1 g/m*3 9.1 C 0 km/h
355 14-05-2010 22:55:03 9 C 7.14 g/m*3 9 C 0 km/h
356 14-05-2010 23:07:03 8.6 C 7.13 g/m*3 8.6 C 0 km/h
357 14-05-2010 23:19:03 8.2 C 7.12 g/m*3 8.2 C 0 km/h
358 14-05-2010 23:31:03 8.2 C 7.2 g/m*3 8.2 C 0 km/h
359 14-05-2010 23:43:03 8.1 C 7.16 g/m*3 8.1 C 0 km/h
360 14-05-2010 23:55:03 8.1 C 7.24 g/m*3 8.1 C 0 km/h
361 15-05-2010 00:07:03 8 C 7.19 g/m*3 8 C 0 km/h
362 15-05-2010 00:19:03 8 C 7.19 g/m*3 8 C 0 km/h
363 15-05-2010 00:31:04 7.9 C 7.23 g/m*3 7.9 C 0 km/h
364 15-05-2010 00:43:04 7.8 C 7.18 g/m*3 7.8 C 0 km/h
365 15-05-2010 00:55:04 7.8 C 7.18 g/m*3 7.8 C 0 km/h
366 15-05-2010 01:07:04 7.9 C 7.23 g/m*3 7.9 C 0 km/h
367 15-05-2010 01:19:04 7.8 C 7.18 g/m*3 7.8 C 0 km/h
368 15-05-2010 01:31:04 7.6 C 7.09 g/m*3 7.6 C 0 km/h
369 15-05-2010 01:43:04 7.6 C 7.09 g/m*3 7.6 C 0 km/h
370 15-05-2010 01:55:04 7.6 C 7.09 g/m*3 7.6 C 0 km/h
371 15-05-2010 02:07:04 7.5 C 7.04 g/m*3 7.5 C 0 km/h
372 15-05-2010 02:19:04 7.5 C 7.12 g/m*3 7.5 C 0 km/h
373 15-05-2010 02:31:04 7.6 C 7.17 g/m*3 7.6 C 0 km/h
374 15-05-2010 02:43:04 7.8 C 7.26 g/m*3 7.8 C 0 km/h
375 15-05-2010 02:55:04 7.8 C 7.26 g/m*3 7.8 C 0 km/h
Sensor: Nr:Datum:Temp:Abs-Feuchte:Windchill:Wind:
Aussen-T/F 376 15-05-2010 03:07:04 7.6 C 7.17 g/m*3 7.6 C 0 km/h
377 15-05-2010 03:19:04 7.6 C 7.17 g/m*3 7.6 C 0 km/h
378 15-05-2010 03:31:04 7.6 C 7.25 g/m*3 7.6 C 0 km/h
379 15-05-2010 03:43:04 7.6 C 7.25 g/m*3 7.6 C 0 km/h
380 15-05-2010 03:55:04 7.6 C 7.25 g/m*3 7.6 C 0 km/h
381 15-05-2010 04:07:04 7.6 C 7.25 g/m*3 7.6 C 0 km/h
382 15-05-2010 04:19:04 7.7 C 7.3 g/m*3 7.7 C 0 km/h
383 15-05-2010 04:31:04 7.6 C 7.25 g/m*3 7.6 C 0 km/h
384 15-05-2010 04:43:05 7.6 C 7.25 g/m*3 7.6 C 0 km/h
385 15-05-2010 04:55:05 7.5 C 7.2 g/m*3 7.5 C 0 km/h
386 15-05-2010 05:07:05 7.4 C 7.24 g/m*3 7.4 C 0 km/h
387 15-05-2010 05:19:05 7.3 C 7.19 g/m*3 7.3 C 0 km/h
388 15-05-2010 05:31:05 7.3 C 7.19 g/m*3 7.3 C 0 km/h
389 15-05-2010 05:43:05 7.2 C 7.14 g/m*3 7.2 C 0 km/h
390 15-05-2010 05:55:05 7.1 C 7.1 g/m*3 7.1 C 0 km/h
391 15-05-2010 06:07:05 7.1 C 7.1 g/m*3 7.1 C 0 km/h
392 15-05-2010 06:19:05 7.1 C 7.1 g/m*3 7.1 C 0 km/h
393 15-05-2010 06:31:05 7.1 C 7.18 g/m*3 7.1 C 0 km/h
394 15-05-2010 06:43:05 7.1 C 7.18 g/m*3 7.1 C 0 km/h
395 15-05-2010 06:55:05 7.1 C 7.18 g/m*3 7.1 C 0 km/h
396 15-05-2010 07:07:05 7.1 C 7.18 g/m*3 7.1 C 0 km/h
397 15-05-2010 07:19:05 7.4 C 7.32 g/m*3 7.4 C 0 km/h
398 15-05-2010 07:31:05 7.5 C 7.36 g/m*3 7.5 C 0 km/h
399 15-05-2010 07:43:05 7.8 C 7.51 g/m*3 7.8 C 0 km/h
400 15-05-2010 07:55:02 8.2 C 7.62 g/m*3 8.2 C 0 km/h
Sensor: Nr:Datum:Temp:Abs-Feuchte:Windchill:Wind:
Aussen-T/F 401 15-05-2010 08:07:02 8.3 C 7.59 g/m*3 8.3 C 0 km/h
402 15-05-2010 08:19:02 8.2 C 7.29 g/m*3 8.2 C 0 km/h
403 15-05-2010 08:31:03 8.6 C 7.39 g/m*3 8.6 C 0 km/h
404 15-05-2010 08:43:03 8.5 C 7 g/m*3 8.5 C 0 km/h
405 15-05-2010 08:55:02 8.8 C 7.05 g/m*3 8.8 C 0 km/h
406 15-05-2010 09:07:02 9 C 6.88 g/m*3 9 C 0 km/h
407 15-05-2010 09:19:02 9.3 C 6.92 g/m*3 9.3 C 0 km/h
408 15-05-2010 09:31:02 9.5 C 6.83 g/m*3 9.5 C 0 km/h
409 15-05-2010 09:43:02 9.6 C 6.78 g/m*3 9.6 C 0 km/h
410 15-05-2010 09:55:01 10 C 6.67 g/m*3 10 C 0 km/h
411 15-05-2010 10:07:02 10.5 C 6.6 g/m*3 10.5 C 0 km/h
412 15-05-2010 10:19:01 10.7 C 6.48 g/m*3 10.7 C 0 km/h
413 15-05-2010 10:31:02 10.6 C 6.34 g/m*3 10.6 C 0 km/h
414 15-05-2010 10:43:02 11.1 C 6.35 g/m*3 11.1 C 0 km/h
415 15-05-2010 10:55:02 11.1 C 6.35 g/m*3 11.1 C 0 km/h
416 15-05-2010 11:07:02 10.9 C 6.27 g/m*3 10.9 C 0 km/h
417 15-05-2010 11:19:01 10.8 C 6.23 g/m*3 10.8 C 0 km/h
418 15-05-2010 11:31:02 10.9 C 6.17 g/m*3 10.9 C 0 km/h
419 15-05-2010 11:43:02 11.5 C 5.89 g/m*3 11.5 C 0 km/h
420 15-05-2010 11:55:02 11.9 C 6.04 g/m*3 11.9 C 0 km/h
421 15-05-2010 12:07:02 11.2 C 5.68 g/m*3 11.2 C 0 km/h
422 15-05-2010 12:19:02 11.1 C 5.64 g/m*3 11.1 C 0 km/h
423 15-05-2010 12:31:02 11.2 C 5.57 g/m*3 11.2 C 0 km/h
424 15-05-2010 12:43:02 12.4 C 5.46 g/m*3 12.4 C 0 km/h
425 15-05-2010 12:55:02 12.3 C 4.78 g/m*3 12.3 C 0 km/h
Sensor: Nr:Datum:Temp:Abs-Feuchte:Windchill:Wind:
Aussen-T/F 426 15-05-2010 13:07:02 13.9 C 5.04 g/m*3 13.9 C 0 km/h
427 15-05-2010 13:19:03 12 C 4.58 g/m*3 12 C 0 km/h
428 15-05-2010 13:31:02 11.1 C 5.14 g/m*3 11.1 C 0 km/h
429 15-05-2010 13:43:02 11.2 C 4.87 g/m*3 11.2 C 0 km/h
430 15-05-2010 13:55:02 12.1 C 4.5 g/m*3 12.1 C 0 km/h
431 15-05-2010 14:07:02 13.7 C 4.5 g/m*3 13.7 C 0 km/h
432 15-05-2010 14:19:02 15 C 4.62 g/m*3 15 C 0 km/h
433 15-05-2010 14:31:02 14.7 C 4.15 g/m*3 14.7 C 0 km/h
434 15-05-2010 14:43:02 14 C 3.98 g/m*3 14 C 0 km/h
435 15-05-2010 14:55:01 13.9 C 3.72 g/m*3 13.9 C 0 km/h
436 15-05-2010 15:07:01 14.3 C 3.56 g/m*3 14.3 C 0 km/h
437 15-05-2010 15:19:01 15.2 C 3.24 g/m*3 15.2 C 0 km/h
438 15-05-2010 15:31:01 15.8 C 2.69 g/m*3 15.8 C 0 km/h
439 15-05-2010 15:43:01 16 C 2.72 g/m*3 16 C 0 km/h
440 15-05-2010 15:55:01 16.2 C 2.76 g/m*3 16.2 C 0 km/h
441 15-05-2010 16:07:02 16.2 C 2.76 g/m*3 16.2 C 0 km/h
442 15-05-2010 16:19:01 15.1 C 2.58 g/m*3 15.1 C 0 km/h
443 15-05-2010 16:31:01 14.4 C 2.47 g/m*3 14.4 C 0 km/h
444 15-05-2010 16:43:01 14.4 C 2.97 g/m*3 14.4 C 0 km/h
445 15-05-2010 16:55:01 13.8 C 2.98 g/m*3 13.8 C 0 km/h
446 15-05-2010 17:07:02 13.9 C 3.12 g/m*3 13.9 C 0 km/h
447 15-05-2010 17:19:01 14 C 3.02 g/m*3 14 C 0 km/h
448 15-05-2010 17:31:02 14.1 C 3.16 g/m*3 14.1 C 0 km/h
449 15-05-2010 17:43:02 14 C 3.26 g/m*3 14 C 0 km/h
450 15-05-2010 17:55:02 14 C 3.26 g/m*3 14 C 0 km/h
Sensor: Nr:Datum:Temp:Abs-Feuchte:Windchill:Wind:
Aussen-T/F 451 15-05-2010 18:07:02 13.7 C 3.43 g/m*3 13.7 C 0 km/h
452 15-05-2010 18:19:01 14 C 3.62 g/m*3 14 C 0 km/h
453 15-05-2010 18:31:02 13.8 C 3.46 g/m*3 13.8 C 0 km/h
454 15-05-2010 18:43:02 13.7 C 3.43 g/m*3 13.7 C 0 km/h
455 15-05-2010 18:55:02 13.9 C 3.36 g/m*3 13.9 C 0 km/h
456 15-05-2010 19:07:02 13.9 C 3.24 g/m*3 13.9 C 0 km/h
457 15-05-2010 19:19:02 14.6 C 3.5 g/m*3 14.6 C 0 km/h
458 15-05-2010 19:31:02 15.1 C 3.23 g/m*3 15.1 C 0 km/h
459 15-05-2010 19:43:02 14.9 C 3.44 g/m*3 14.9 C 0 km/h
460 15-05-2010 19:55:02 14.4 C 3.58 g/m*3 14.4 C 0 km/h
461 15-05-2010 20:07:02 13.9 C 4.2 g/m*3 13.9 C 0 km/h
462 15-05-2010 20:19:02 13.3 C 4.62 g/m*3 13.3 C 0 km/h
463 15-05-2010 20:31:02 12.4 C 4.48 g/m*3 12.4 C 0 km/h
464 15-05-2010 20:43:02 11.6 C 4.47 g/m*3 11.6 C 0 km/h
465 15-05-2010 20:55:02 11.3 C 4.59 g/m*3 11.3 C 0 km/h
466 15-05-2010 21:07:02 11.4 C 4.62 g/m*3 11.4 C 0 km/h
467 15-05-2010 21:19:02 11.1 C 4.53 g/m*3 11.1 C 0 km/h
468 15-05-2010 21:31:02 10.8 C 4.55 g/m*3 10.8 C 0 km/h
469 15-05-2010 21:43:02 10.8 C 4.84 g/m*3 10.8 C 0 km/h
470 15-05-2010 21:55:01 10.8 C 4.84 g/m*3 10.8 C 0 km/h
471 15-05-2010 22:07:02 10.8 C 4.94 g/m*3 10.8 C 0 km/h
472 15-05-2010 22:19:02 11 C 5 g/m*3 11 C 0 km/h
473 15-05-2010 22:32:02 11.1 C 4.83 g/m*3 11.1 C 0 km/h
474 15-05-2010 22:44:03 11.2 C 4.66 g/m*3 11.2 C 0 km/h
475 15-05-2010 22:56:03 11.2 C 4.66 g/m*3 11.2 C 0 km/h
Sensor: Nr:Datum:Temp:Abs-Feuchte:Windchill:Wind:
Aussen-T/F 476 15-05-2010 23:08:03 11.1 C 4.73 g/m*3 11.1 C 0 km/h
477 15-05-2010 23:20:03 10.9 C 4.97 g/m*3 10.9 C 0 km/h
478 15-05-2010 23:32:03 10.9 C 5.07 g/m*3 10.9 C 0 km/h
479 15-05-2010 23:44:03 10.8 C 5.04 g/m*3 10.8 C 0 km/h
480 15-05-2010 23:56:03 10.5 C 5.04 g/m*3 10.5 C 0 km/h
481 16-05-2010 00:08:03 10.2 C 5.04 g/m*3 10.2 C 0 km/h
482 16-05-2010 00:20:03 10.1 C 5.3 g/m*3 10.1 C 0 km/h
483 16-05-2010 00:32:03 10.1 C 5.39 g/m*3 10.1 C 0 km/h
484 16-05-2010 00:44:03 10 C 5.45 g/m*3 10 C 0 km/h
485 16-05-2010 00:56:03 10.1 C 5.48 g/m*3 10.1 C 0 km/h
486 16-05-2010 01:08:03 10 C 5.54 g/m*3 10 C 0 km/h
487 16-05-2010 01:20:03 9.7 C 5.62 g/m*3 9.7 C 0 km/h
488 16-05-2010 01:32:03 9.3 C 5.66 g/m*3 9.3 C 0 km/h
489 16-05-2010 01:44:03 9 C 5.64 g/m*3 9 C 0 km/h
490 16-05-2010 01:56:03 8.7 C 5.88 g/m*3 8.7 C 0 km/h
491 16-05-2010 02:08:03 8.4 C 5.85 g/m*3 8.4 C 0 km/h
492 16-05-2010 02:20:03 8.2 C 5.86 g/m*3 8.2 C 0 km/h
493 16-05-2010 02:32:03 8 C 5.87 g/m*3 8 C 0 km/h
494 16-05-2010 02:44:04 7.8 C 5.96 g/m*3 7.8 C 0 km/h
495 16-05-2010 02:56:04 7.8 C 5.88 g/m*3 7.8 C 0 km/h
496 16-05-2010 03:08:04 7.6 C 5.88 g/m*3 7.6 C 0 km/h
497 16-05-2010 03:20:04 7.4 C 5.88 g/m*3 7.4 C 0 km/h
498 16-05-2010 03:32:04 7.4 C 5.88 g/m*3 7.4 C 0 km/h
499 16-05-2010 03:44:04 7.5 C 5.92 g/m*3 7.5 C 0 km/h
500 16-05-2010 03:56:04 7.5 C 5.92 g/m*3 7.5 C 0 km/h
Sensor: Nr:Datum:Temp:Abs-Feuchte:Windchill:Wind:
Aussen-T/F 501 16-05-2010 04:08:04 7.6 C 5.96 g/m*3 7.6 C 0 km/h
502 16-05-2010 04:20:04 7.6 C 5.88 g/m*3 7.6 C 0 km/h
503 16-05-2010 04:32:04 7.6 C 5.96 g/m*3 7.6 C 0 km/h
504 16-05-2010 04:44:04 7.6 C 5.96 g/m*3 7.6 C 0 km/h
505 16-05-2010 04:56:04 7.6 C 5.96 g/m*3 7.6 C 0 km/h
506 16-05-2010 05:08:04 7.6 C 5.96 g/m*3 7.6 C 0 km/h
507 16-05-2010 05:20:04 7.5 C 5.92 g/m*3 7.5 C 0 km/h
508 16-05-2010 05:32:04 7.2 C 5.89 g/m*3 7.2 C 0 km/h
509 16-05-2010 05:44:04 7 C 5.89 g/m*3 7 C 0 km/h
510 16-05-2010 05:56:04 7.2 C 5.97 g/m*3 7.2 C 0 km/h
511 16-05-2010 06:08:04 7.4 C 6.04 g/m*3 7.4 C 0 km/h
512 16-05-2010 06:20:04 7.4 C 5.96 g/m*3 7.4 C 0 km/h
513 16-05-2010 06:32:04 7.4 C 5.96 g/m*3 7.4 C 0 km/h
514 16-05-2010 06:44:04 7.4 C 5.96 g/m*3 7.4 C 0 km/h
515 16-05-2010 06:56:05 7.5 C 6 g/m*3 7.5 C 0 km/h
516 16-05-2010 07:08:05 7.7 C 6.08 g/m*3 7.7 C 0 km/h
517 16-05-2010 07:20:05 7.8 C 6.04 g/m*3 7.8 C 0 km/h
518 16-05-2010 07:32:05 7.9 C 6.08 g/m*3 7.9 C 0 km/h
519 16-05-2010 07:44:05 7.9 C 6.08 g/m*3 7.9 C 0 km/h
520 16-05-2010 07:56:05 7.9 C 6.08 g/m*3 7.9 C 0 km/h
521 16-05-2010 08:08:05 8 C 6.04 g/m*3 8 C 0 km/h
522 16-05-2010 08:20:05 8.2 C 6.2 g/m*3 8.2 C 0 km/h
523 16-05-2010 08:32:05 8.7 C 6.14 g/m*3 8.7 C 0 km/h
524 16-05-2010 08:44:05 9.1 C 6.03 g/m*3 9.1 C 0 km/h
525 16-05-2010 08:56:05 9.6 C 6.05 g/m*3 9.6 C 0 km/h
Sensor: Nr:Datum:Temp:Abs-Feuchte:Windchill:Wind:
Aussen-T/F 526 16-05-2010 09:08:02 10.2 C 5.8 g/m*3 10.2 C 0 km/h
527 16-05-2010 09:20:01 10.6 C 4.98 g/m*3 10.6 C 0 km/h
528 16-05-2010 09:32:02 11 C 4.7 g/m*3 11 C 0 km/h
529 16-05-2010 09:44:02 11.3 C 4.39 g/m*3 11.3 C 0 km/h
530 16-05-2010 09:56:02 11.7 C 4.39 g/m*3 11.7 C 0 km/h
531 16-05-2010 10:08:02 11.9 C 4.24 g/m*3 11.9 C 0 km/h
532 16-05-2010 10:20:01 12.2 C 4.1 g/m*3 12.2 C 0 km/h
533 16-05-2010 10:32:02 12.4 C 4.15 g/m*3 12.4 C 0 km/h
534 16-05-2010 10:44:02 13 C 4.31 g/m*3 13 C 0 km/h
535 16-05-2010 10:56:01 13.3 C 4.16 g/m*3 13.3 C 0 km/h
536 16-05-2010 11:08:02 13.7 C 4.03 g/m*3 13.7 C 0 km/h
537 16-05-2010 11:20:02 14.3 C 4.05 g/m*3 14.3 C 0 km/h
538 16-05-2010 11:32:02 15.4 C 4.07 g/m*3 15.4 C 0 km/h
539 16-05-2010 11:44:02 15.4 C 3.94 g/m*3 15.4 C 0 km/h
540 16-05-2010 11:56:01 15.4 C 3.81 g/m*3 15.4 C 0 km/h
541 16-05-2010 12:08:02 15.9 C 3.52 g/m*3 15.9 C 0 km/h
542 16-05-2010 12:20:02 16.1 C 3.84 g/m*3 16.1 C 0 km/h
543 16-05-2010 12:32:02 17.9 C 3.82 g/m*3 17.9 C 0 km/h
544 16-05-2010 12:44:02 17.2 C 3.37 g/m*3 17.2 C 0 km/h
545 16-05-2010 12:56:01 16.1 C 3.43 g/m*3 16.1 C 0 km/h
546 16-05-2010 13:08:02 18.3 C 3.6 g/m*3 18.3 C 0 km/h
547 16-05-2010 13:20:02 17.3 C 3.39 g/m*3 17.3 C 0 km/h
548 16-05-2010 13:32:01 17.4 C 3.41 g/m*3 17.4 C 0 km/h
549 16-05-2010 13:44:01 18 C 3.69 g/m*3 18 C 0 km/h
550 16-05-2010 13:56:02 17.3 C 3.54 g/m*3 17.3 C 0 km/h
Sensor: Nr:Datum:Temp:Abs-Feuchte:Windchill:Wind:
Aussen-T/F 551 16-05-2010 14:08:01 16.7 C 3.55 g/m*3 16.7 C 0 km/h
552 16-05-2010 14:20:02 18.4 C 3.93 g/m*3 18.4 C 0 km/h
553 16-05-2010 14:32:02 18.4 C 3.3 g/m*3 18.4 C 0 km/h
554 16-05-2010 14:44:02 17.9 C 3.51 g/m*3 17.9 C 0 km/h
555 16-05-2010 14:56:02 18.2 C 3.42 g/m*3 18.2 C 0 km/h
556 16-05-2010 15:08:02 19 C 3.26 g/m*3 19 C 0 km/h
557 16-05-2010 15:20:02 19.3 C 3.32 g/m*3 19.3 C 0 km/h
558 16-05-2010 15:32:02 19.8 C 3.42 g/m*3 19.8 C 0 km/h
559 16-05-2010 15:44:02 19.1 C 3.28 g/m*3 19.1 C 0 km/h
560 16-05-2010 15:56:02 20.3 C 3.52 g/m*3 20.3 C 0 km/h
561 16-05-2010 16:08:02 21 C 3.66 g/m*3 21 C 0 km/h
562 16-05-2010 16:20:01 20.1 C 3.48 g/m*3 20.1 C 0 km/h
563 16-05-2010 16:32:02 20.4 C 3.54 g/m*3 20.4 C 0 km/h
564 16-05-2010 16:44:02 20 C 3.46 g/m*3 20 C 0 km/h
565 16-05-2010 16:56:02 21.2 C 3.71 g/m*3 21.2 C 0 km/h
566 16-05-2010 17:08:02 21.7 C 3.82 g/m*3 21.7 C 0 km/h
567 16-05-2010 17:20:02 21.1 C 3.69 g/m*3 21.1 C 0 km/h
568 16-05-2010 17:32:02 21.5 C 3.77 g/m*3 21.5 C 0 km/h
569 16-05-2010 17:44:02 21.4 C 3.75 g/m*3 21.4 C 0 km/h
570 16-05-2010 17:56:02 20.8 C 3.62 g/m*3 20.8 C 0 km/h
571 16-05-2010 18:08:02 20.8 C 3.62 g/m*3 20.8 C 0 km/h
572 16-05-2010 18:20:02 20 C 3.46 g/m*3 20 C 0 km/h
573 16-05-2010 18:32:02 19.5 C 3.52 g/m*3 19.5 C 0 km/h
574 16-05-2010 18:44:02 18.9 C 3.56 g/m*3 18.9 C 0 km/h
575 16-05-2010 18:56:02 19.9 C 3.44 g/m*3 19.9 C 0 km/h
Sensor: Nr:Datum:Temp:Abs-Feuchte:Windchill:Wind:
Aussen-T/F 576 16-05-2010 19:08:02 19.7 C 3.57 g/m*3 19.7 C 0 km/h
577 16-05-2010 19:20:03 19.5 C 3.52 g/m*3 19.5 C 0 km/h
578 16-05-2010 19:32:02 18.6 C 3.5 g/m*3 18.6 C 0 km/h
579 16-05-2010 19:44:02 18.2 C 3.89 g/m*3 18.2 C 0 km/h
580 16-05-2010 19:56:02 18.3 C 3.91 g/m*3 18.3 C 0 km/h
581 16-05-2010 20:08:02 19.3 C 4.15 g/m*3 19.3 C 0 km/h
582 16-05-2010 20:20:02 19.3 C 4.48 g/m*3 19.3 C 0 km/h
583 16-05-2010 20:32:02 18.2 C 4.51 g/m*3 18.2 C 0 km/h
584 16-05-2010 20:44:02 17 C 4.63 g/m*3 17 C 0 km/h
585 16-05-2010 20:56:02 16 C 4.5 g/m*3 16 C 0 km/h
586 16-05-2010 21:08:02 15.1 C 4.52 g/m*3 15.1 C 0 km/h
587 16-05-2010 21:20:02 14.6 C 4.63 g/m*3 14.6 C 0 km/h
588 16-05-2010 21:32:02 14.2 C 4.76 g/m*3 14.2 C 0 km/h
589 16-05-2010 21:44:02 13.9 C 4.92 g/m*3 13.9 C 0 km/h
590 16-05-2010 21:56:02 13.6 C 5.18 g/m*3 13.6 C 0 km/h
591 16-05-2010 22:08:02 13.2 C 5.05 g/m*3 13.2 C 0 km/h
592 16-05-2010 22:20:03 12.6 C 5.31 g/m*3 12.6 C 0 km/h
593 16-05-2010 22:33:03 12.3 C 5.32 g/m*3 12.3 C 0 km/h
594 16-05-2010 22:45:03 11.9 C 5.4 g/m*3 11.9 C 0 km/h
595 16-05-2010 22:57:03 11.8 C 5.58 g/m*3 11.8 C 0 km/h
596 16-05-2010 23:09:03 11.4 C 5.65 g/m*3 11.4 C 0 km/h
597 16-05-2010 23:21:03 11 C 5.71 g/m*3 11 C 0 km/h
598 16-05-2010 23:33:03 10.7 C 5.8 g/m*3 10.7 C 0 km/h
599 16-05-2010 23:45:03 10.7 C 5.89 g/m*3 10.7 C 0 km/h
600 16-05-2010 23:57:03 10.5 C 6.01 g/m*3 10.5 C 0 km/h
Sensor: Nr:Datum:Temp:Abs-Feuchte:Windchill:Wind:
Aussen-T/F 601 17-05-2010 00:09:03 10.3 C 6.03 g/m*3 10.3 C 0 km/h
602 17-05-2010 00:21:03 10.4 C 5.98 g/m*3 10.4 C 0 km/h
603 17-05-2010 00:33:03 10 C 5.92 g/m*3 10 C 0 km/h
604 17-05-2010 00:45:03 10 C 5.92 g/m*3 10 C 0 km/h
605 17-05-2010 00:57:03 9.9 C 5.98 g/m*3 9.9 C 0 km/h
606 17-05-2010 01:09:03 9.8 C 5.85 g/m*3 9.8 C 0 km/h
607 17-05-2010 01:21:04 9.7 C 5.99 g/m*3 9.7 C 0 km/h
608 17-05-2010 01:33:04 9.3 C 6.02 g/m*3 9.3 C 0 km/h
609 17-05-2010 01:45:04 9 C 5.99 g/m*3 9 C 0 km/h
610 17-05-2010 01:57:04 9 C 6.08 g/m*3 9 C 0 km/h
611 17-05-2010 02:09:04 8.7 C 6.14 g/m*3 8.7 C 0 km/h
612 17-05-2010 02:21:04 8.6 C 6.1 g/m*3 8.6 C 0 km/h
613 17-05-2010 02:33:04 8.6 C 6.19 g/m*3 8.6 C 0 km/h
614 17-05-2010 02:45:04 8.5 C 6.15 g/m*3 8.5 C 0 km/h
615 17-05-2010 02:57:04 8.4 C 6.11 g/m*3 8.4 C 0 km/h
616 17-05-2010 03:09:04 8.1 C 6.07 g/m*3 8.1 C 0 km/h
617 17-05-2010 03:21:04 7.8 C 6.12 g/m*3 7.8 C 0 km/h
618 17-05-2010 03:33:04 7.6 C 6.12 g/m*3 7.6 C 0 km/h
619 17-05-2010 03:45:04 7.4 C 6.12 g/m*3 7.4 C 0 km/h
620 17-05-2010 03:57:04 7.3 C 6.16 g/m*3 7.3 C 0 km/h
621 17-05-2010 04:09:04 7.2 C 6.12 g/m*3 7.2 C 0 km/h
622 17-05-2010 04:21:04 7.1 C 6.08 g/m*3 7.1 C 0 km/h
623 17-05-2010 04:33:04 7 C 6.04 g/m*3 7 C 0 km/h
624 17-05-2010 04:45:04 6.8 C 6.12 g/m*3 6.8 C 0 km/h
625 17-05-2010 04:57:04 6.7 C 6.15 g/m*3 6.7 C 0 km/h
Sensor: Nr:Datum:Temp:Abs-Feuchte:Windchill:Wind:
Aussen-T/F 626 17-05-2010 05:09:04 6.5 C 6.15 g/m*3 6.5 C 0 km/h
627 17-05-2010 05:21:04 6.3 C 6.07 g/m*3 6.3 C 0 km/h
628 17-05-2010 05:33:04 6.2 C 6.1 g/m*3 6.2 C 0 km/h
629 17-05-2010 05:45:05 6.1 C 6.06 g/m*3 6.1 C 0 km/h
630 17-05-2010 05:57:05 6 C 6.02 g/m*3 6 C 0 km/h
631 17-05-2010 06:09:05 6 C 6.1 g/m*3 6 C 0 km/h
632 17-05-2010 06:21:05 6 C 6.02 g/m*3 6 C 0 km/h
633 17-05-2010 06:33:03 6 C 6.02 g/m*3 6 C 0 km/h
634 17-05-2010 06:45:02 5.9 C 6.06 g/m*3 5.9 C 0 km/h
635 17-05-2010 06:57:02 6.1 C 6.06 g/m*3 6.1 C 0 km/h
636 17-05-2010 07:09:01 6.3 C 6.14 g/m*3 6.3 C 0 km/h
637 17-05-2010 07:21:02 6.5 C 6.15 g/m*3 6.5 C 0 km/h
638 17-05-2010 07:33:01 7.2 C 6.2 g/m*3 7.2 C 0 km/h
639 17-05-2010 07:45:02 7.4 C 6.2 g/m*3 7.4 C 0 km/h
640 17-05-2010 07:57:02 8 C 6.2 g/m*3 8 C 0 km/h
641 17-05-2010 08:09:01 8.3 C 6.24 g/m*3 8.3 C 0 km/h
642 17-05-2010 08:21:02 8.8 C 6.35 g/m*3 8.8 C 0 km/h
643 17-05-2010 08:33:02 9.2 C 6.25 g/m*3 9.2 C 0 km/h
644 17-05-2010 08:45:02 10.1 C 6.24 g/m*3 10.1 C 0 km/h
645 17-05-2010 08:57:02 10.7 C 6.29 g/m*3 10.7 C 0 km/h
646 17-05-2010 09:09:02 11.2 C 6.28 g/m*3 11.2 C 0 km/h
647 17-05-2010 09:21:02 11.6 C 6.44 g/m*3 11.6 C 0 km/h
648 17-05-2010 09:33:02 12.2 C 6.47 g/m*3 12.2 C 0 km/h
649 17-05-2010 09:45:02 12.2 C 6.47 g/m*3 12.2 C 0 km/h
650 17-05-2010 09:57:02 12.2 C 6.47 g/m*3 12.2 C 0 km/h
Sensor: Nr:Datum:Temp:Abs-Feuchte:Windchill:Wind:
Aussen-T/F 651 17-05-2010 10:09:02 13 C 6.35 g/m*3 13 C 0 km/h
652 17-05-2010 10:21:02 13.2 C 6.2 g/m*3 13.2 C 0 km/h
653 17-05-2010 10:33:03 13.7 C 6.39 g/m*3 13.7 C 0 km/h
654 17-05-2010 10:45:02 14.1 C 6.55 g/m*3 14.1 C 0 km/h
655 17-05-2010 10:57:03 14.5 C 6.47 g/m*3 14.5 C 0 km/h
656 17-05-2010 11:09:01 14.1 C 6.55 g/m*3 14.1 C 0 km/h
657 17-05-2010 11:21:02 13.9 C 6.83 g/m*3 13.9 C 0 km/h
658 17-05-2010 11:33:02 13.5 C 6.67 g/m*3 13.5 C 0 km/h
659 17-05-2010 11:45:02 13.5 C 7.13 g/m*3 13.5 C 0 km/h
660 17-05-2010 11:57:02 13 C 7.14 g/m*3 13 C 0 km/h
661 17-05-2010 12:09:02 13.2 C 7.23 g/m*3 13.2 C 0 km/h
662 17-05-2010 12:21:02 13 C 7.48 g/m*3 13 C 0 km/h
663 17-05-2010 12:33:02 13.2 C 7.69 g/m*3 13.2 C 0 km/h
664 17-05-2010 12:45:01 14.2 C 7.45 g/m*3 14.2 C 0 km/h
665 17-05-2010 12:57:01 15.8 C 7.27 g/m*3 15.8 C 0 km/h
666 17-05-2010 13:09:02 15.4 C 6.7 g/m*3 15.4 C 0 km/h
667 17-05-2010 13:21:01 16.9 C 6.9 g/m*3 16.9 C 0 km/h
668 17-05-2010 13:33:01 18.1 C 6.49 g/m*3 18.1 C 0 km/h
669 17-05-2010 13:45:01 17.7 C 6.04 g/m*3 17.7 C 0 km/h
670 17-05-2010 13:57:01 15 C 7.05 g/m*3 15 C 0 km/h
671 17-05-2010 14:09:02 15.6 C 7.05 g/m*3 15.6 C 0 km/h
672 17-05-2010 14:21:01 15.5 C 7.4 g/m*3 15.5 C 0 km/h
673 17-05-2010 14:33:01 17.1 C 6.7 g/m*3 17.1 C 0 km/h
674 17-05-2010 14:45:01 16.5 C 6.46 g/m*3 16.5 C 0 km/h
675 17-05-2010 14:57:01 14.7 C 7.18 g/m*3 14.7 C 0 km/h
Sensor: Nr:Datum:Temp:Abs-Feuchte:Windchill:Wind:
Aussen-T/F 676 17-05-2010 15:09:02 12.6 C 8.3 g/m*3 12.6 C 0 km/h
677 17-05-2010 15:21:02 12.6 C 9.07 g/m*3 12.6 C 0 km/h
678 17-05-2010 15:33:01 12.9 C 9.58 g/m*3 12.9 C 0 km/h
679 17-05-2010 15:45:02 12.7 C 9.57 g/m*3 12.7 C 0 km/h
680 17-05-2010 15:57:02 12.5 C 9.57 g/m*3 12.5 C 0 km/h
681 17-05-2010 16:09:01 13.3 C 10.05 g/m*3 13.3 C 0 km/h
682 17-05-2010 16:21:02 13.8 C 9.89 g/m*3 13.8 C 0 km/h
683 17-05-2010 16:33:01 13.7 C 9.24 g/m*3 13.7 C 0 km/h
684 17-05-2010 16:45:02 13.1 C 8.9 g/m*3 13.1 C 0 km/h
685 17-05-2010 16:57:02 13.3 C 9.24 g/m*3 13.3 C 0 km/h
686 17-05-2010 17:09:01 13.8 C 9.29 g/m*3 13.8 C 0 km/h
687 17-05-2010 17:21:01 14.1 C 8.98 g/m*3 14.1 C 0 km/h
688 17-05-2010 17:33:01 13.9 C 8.99 g/m*3 13.9 C 0 km/h
689 17-05-2010 17:45:02 13.7 C 8.64 g/m*3 13.7 C 0 km/h
690 17-05-2010 17:57:02 13.8 C 8.7 g/m*3 13.8 C 0 km/h
691 17-05-2010 18:09:02 13.6 C 8.47 g/m*3 13.6 C 0 km/h
692 17-05-2010 18:21:02 14.4 C 8.9 g/m*3 14.4 C 0 km/h
693 17-05-2010 18:33:02 11.8 C 6.63 g/m*3 11.8 C 0 km/h
694 17-05-2010 18:45:01 10.7 C 6.88 g/m*3 10.7 C 0 km/h
695 17-05-2010 18:57:01 10 C 7.24 g/m*3 10 C 0 km/h
696 17-05-2010 19:09:02 9.8 C 7.7 g/m*3 9.8 C 0 km/h
697 17-05-2010 19:21:01 10.3 C 7.85 g/m*3 10.3 C 0 km/h
698 17-05-2010 19:33:02 10.3 C 7.95 g/m*3 10.3 C 0 km/h
699 17-05-2010 19:45:02 9.8 C 7.7 g/m*3 9.8 C 0 km/h
700 17-05-2010 19:57:02 10 C 7.8 g/m*3 10 C 0 km/h
Sensor: Nr:Datum:Temp:Abs-Feuchte:Windchill:Wind:
Aussen-T/F 701 17-05-2010 20:09:02 9.8 C 7.89 g/m*3 9.8 C 0 km/h
702 17-05-2010 20:21:01 9.5 C 7.83 g/m*3 9.5 C 0 km/h
703 17-05-2010 20:33:02 9.5 C 7.92 g/m*3 9.5 C 0 km/h
704 17-05-2010 20:45:02 9.4 C 7.87 g/m*3 9.4 C 0 km/h
705 17-05-2010 20:57:02 9.1 C 7.81 g/m*3 9.1 C 0 km/h
706 17-05-2010 21:09:02 9 C 7.76 g/m*3 9 C 0 km/h
707 17-05-2010 21:21:02 9 C 7.85 g/m*3 9 C 0 km/h
708 17-05-2010 21:33:02 9 C 7.85 g/m*3 9 C 0 km/h
709 17-05-2010 21:45:02 8.7 C 7.78 g/m*3 8.7 C 0 km/h
710 17-05-2010 21:57:02 8.7 C 7.87 g/m*3 8.7 C 0 km/h
711 17-05-2010 22:09:02 8.3 C 7.67 g/m*3 8.3 C 0 km/h
712 17-05-2010 22:21:02 8.6 C 7.82 g/m*3 8.6 C 0 km/h
713 17-05-2010 22:34:03 8.7 C 7.96 g/m*3 8.7 C 0 km/h
714 17-05-2010 22:46:03 8.5 C 7.85 g/m*3 8.5 C 0 km/h
715 17-05-2010 22:58:03 8.4 C 7.8 g/m*3 8.4 C 0 km/h
716 17-05-2010 23:10:04 8.1 C 7.57 g/m*3 8.1 C 0 km/h
717 17-05-2010 23:22:04 7.8 C 7.51 g/m*3 7.8 C 0 km/h
718 17-05-2010 23:34:04 7.8 C 7.51 g/m*3 7.8 C 0 km/h
719 17-05-2010 23:46:04 7.7 C 7.54 g/m*3 7.7 C 0 km/h
720 17-05-2010 23:58:04 7.6 C 7.49 g/m*3 7.6 C 0 km/h
721 18-05-2010 00:10:04 7.4 C 7.32 g/m*3 7.4 C 0 km/h
722 18-05-2010 00:22:04 7.1 C 7.18 g/m*3 7.1 C 0 km/h
723 18-05-2010 00:34:04 7 C 7.13 g/m*3 7 C 0 km/h
724 18-05-2010 00:46:04 7 C 7.13 g/m*3 7 C 0 km/h
725 18-05-2010 00:58:04 6.9 C 7.16 g/m*3 6.9 C 0 km/h
Sensor: Nr:Datum:Temp:Abs-Feuchte:Windchill:Wind:
Aussen-T/F 726 18-05-2010 01:10:04 6.8 C 7.11 g/m*3 6.8 C 0 km/h
727 18-05-2010 01:22:04 6.6 C 7.02 g/m*3 6.6 C 0 km/h
728 18-05-2010 01:34:04 6.4 C 6.85 g/m*3 6.4 C 0 km/h
729 18-05-2010 01:46:04 6.3 C 6.88 g/m*3 6.3 C 0 km/h
730 18-05-2010 01:58:04 6.2 C 6.84 g/m*3 6.2 C 0 km/h
731 18-05-2010 02:10:04 6.3 C 6.88 g/m*3 6.3 C 0 km/h
732 18-05-2010 02:22:04 6.2 C 6.84 g/m*3 6.2 C 0 km/h
733 18-05-2010 02:34:04 6.1 C 6.79 g/m*3 6.1 C 0 km/h
734 18-05-2010 02:46:04 6 C 6.75 g/m*3 6 C 0 km/h
735 18-05-2010 02:58:04 5.9 C 6.71 g/m*3 5.9 C 0 km/h
736 18-05-2010 03:10:04 5.8 C 6.66 g/m*3 5.8 C 0 km/h
737 18-05-2010 03:22:04 5.7 C 6.62 g/m*3 5.7 C 0 km/h
738 18-05-2010 03:34:05 5.7 C 6.69 g/m*3 5.7 C 0 km/h
739 18-05-2010 03:46:05 5.8 C 6.73 g/m*3 5.8 C 0 km/h
740 18-05-2010 03:58:05 6 C 6.75 g/m*3 6 C 0 km/h
741 18-05-2010 04:10:05 6.3 C 6.96 g/m*3 6.3 C 0 km/h
742 18-05-2010 04:22:05 6.3 C 6.96 g/m*3 6.3 C 0 km/h
743 18-05-2010 04:34:05 6.3 C 6.96 g/m*3 6.3 C 0 km/h
744 18-05-2010 04:46:05 6.2 C 6.91 g/m*3 6.2 C 0 km/h
745 18-05-2010 04:58:05 6.3 C 6.88 g/m*3 6.3 C 0 km/h
746 18-05-2010 05:10:05 6.4 C 7 g/m*3 6.4 C 0 km/h
747 18-05-2010 05:22:05 6.5 C 7.05 g/m*3 6.5 C 0 km/h
748 18-05-2010 05:34:05 6.4 C 6.93 g/m*3 6.4 C 0 km/h
749 18-05-2010 05:46:05 6.5 C 6.97 g/m*3 6.5 C 0 km/h
750 18-05-2010 05:58:05 6.7 C 7.07 g/m*3 6.7 C 0 km/h
Sensor: Nr:Datum:Temp:Abs-Feuchte:Windchill:Wind:
Aussen-T/F 751 18-05-2010 06:10:05 6.9 C 7.16 g/m*3 6.9 C 0 km/h
752 18-05-2010 06:22:05 6.9 C 7.16 g/m*3 6.9 C 0 km/h
753 18-05-2010 06:34:05 7.1 C 7.18 g/m*3 7.1 C 0 km/h
754 18-05-2010 06:46:05 7.3 C 7.27 g/m*3 7.3 C 0 km/h
755 18-05-2010 06:58:05 7.5 C 7.28 g/m*3 7.5 C 0 km/h
756 18-05-2010 07:10:04 7.9 C 7.47 g/m*3 7.9 C 0 km/h
757 18-05-2010 07:22:03 7.9 C 7.39 g/m*3 7.9 C 0 km/h
758 18-05-2010 07:34:03 8 C 7.36 g/m*3 8 C 0 km/h
759 18-05-2010 07:46:01 8.5 C 7.6 g/m*3 8.5 C 0 km/h
760 18-05-2010 07:58:01 8.7 C 7.52 g/m*3 8.7 C 0 km/h
761 18-05-2010 08:10:02 9 C 7.23 g/m*3 9 C 0 km/h
762 18-05-2010 08:22:01 8.7 C 6.66 g/m*3 8.7 C 0 km/h
763 18-05-2010 08:34:02 9 C 6.44 g/m*3 9 C 0 km/h
764 18-05-2010 08:46:02 9.3 C 6.56 g/m*3 9.3 C 0 km/h
765 18-05-2010 08:58:02 9.2 C 6.52 g/m*3 9.2 C 0 km/h
766 18-05-2010 09:10:01 9.3 C 6.47 g/m*3 9.3 C 0 km/h
767 18-05-2010 09:22:02 9.6 C 6.41 g/m*3 9.6 C 0 km/h
768 18-05-2010 09:34:01 9.9 C 6.35 g/m*3 9.9 C 0 km/h
769 18-05-2010 09:46:02 9.7 C 6.08 g/m*3 9.7 C 0 km/h
770 18-05-2010 09:58:02 10 C 6.01 g/m*3 10 C 0 km/h
771 18-05-2010 10:10:01 10.5 C 6.01 g/m*3 10.5 C 0 km/h
772 18-05-2010 10:22:01 10.5 C 6.01 g/m*3 10.5 C 0 km/h
773 18-05-2010 10:34:02 10.6 C 5.66 g/m*3 10.6 C 0 km/h
774 18-05-2010 10:46:02 11.2 C 5.57 g/m*3 11.2 C 0 km/h
775 18-05-2010 10:58:02 11.4 C 5.65 g/m*3 11.4 C 0 km/h
Sensor: Nr:Datum:Temp:Abs-Feuchte:Windchill:Wind:
Aussen-T/F 776 18-05-2010 11:10:02 12.5 C 5.61 g/m*3 12.5 C 0 km/h
777 18-05-2010 11:22:02 12.4 C 5.24 g/m*3 12.4 C 0 km/h
778 18-05-2010 11:34:02 12.1 C 5.25 g/m*3 12.1 C 0 km/h
779 18-05-2010 11:46:02 13 C 5.22 g/m*3 13 C 0 km/h
780 18-05-2010 11:58:02 13.7 C 5.21 g/m*3 13.7 C 0 km/h
781 18-05-2010 12:10:03 13.7 C 4.86 g/m*3 13.7 C 0 km/h
782 18-05-2010 12:22:02 12.7 C 5.12 g/m*3 12.7 C 0 km/h
783 18-05-2010 12:34:02 14.2 C 5.13 g/m*3 14.2 C 0 km/h
784 18-05-2010 12:46:01 14.4 C 4.82 g/m*3 14.4 C 0 km/h
785 18-05-2010 12:58:01 15.2 C 4.67 g/m*3 15.2 C 0 km/h
786 18-05-2010 13:10:02 16.8 C 5 g/m*3 16.8 C 0 km/h
787 18-05-2010 13:22:01 16.9 C 4.46 g/m*3 16.9 C 0 km/h
788 18-05-2010 13:34:01 16.5 C 4.49 g/m*3 16.5 C 0 km/h
789 18-05-2010 13:46:01 17.8 C 4.4 g/m*3 17.8 C 0 km/h
790 18-05-2010 13:58:01 15.8 C 4.04 g/m*3 15.8 C 0 km/h
791 18-05-2010 14:10:02 15.1 C 4.13 g/m*3 15.1 C 0 km/h
792 18-05-2010 14:22:01 15.8 C 4.17 g/m*3 15.8 C 0 km/h
793 18-05-2010 14:34:01 15 C 4.23 g/m*3 15 C 0 km/h
794 18-05-2010 14:46:01 15.8 C 4.31 g/m*3 15.8 C 0 km/h
795 18-05-2010 14:58:01 16.3 C 4.16 g/m*3 16.3 C 0 km/h
796 18-05-2010 15:10:02 16.4 C 4.47 g/m*3 16.4 C 0 km/h
797 18-05-2010 15:22:02 16.5 C 4.21 g/m*3 16.5 C 0 km/h
798 18-05-2010 15:34:01 16.6 C 3.96 g/m*3 16.6 C 0 km/h
799 18-05-2010 15:46:02 16 C 3.95 g/m*3 16 C 0 km/h
800 18-05-2010 15:58:02 16.9 C 4.17 g/m*3 16.9 C 0 km/h
Sensor: Nr:Datum:Temp:Abs-Feuchte:Windchill:Wind:
Aussen-T/F 801 18-05-2010 16:10:01 18.2 C 4.04 g/m*3 18.2 C 0 km/h
802 18-05-2010 16:22:02 18.2 C 3.89 g/m*3 18.2 C 0 km/h
803 18-05-2010 16:34:01 17.9 C 3.05 g/m*3 17.9 C 0 km/h
804 18-05-2010 16:46:02 17.6 C 3.3 g/m*3 17.6 C 0 km/h
805 18-05-2010 16:58:02 16.8 C 3.29 g/m*3 16.8 C 0 km/h
806 18-05-2010 17:10:02 16.6 C 3.53 g/m*3 16.6 C 0 km/h
807 18-05-2010 17:22:02 17.7 C 3.77 g/m*3 17.7 C 0 km/h
808 18-05-2010 17:34:02 17.5 C 4.03 g/m*3 17.5 C 0 km/h
809 18-05-2010 17:46:02 16.8 C 3.86 g/m*3 16.8 C 0 km/h
810 18-05-2010 17:58:02 17.2 C 3.66 g/m*3 17.2 C 0 km/h
811 18-05-2010 18:10:01 18.2 C 3.57 g/m*3 18.2 C 0 km/h
812 18-05-2010 18:22:02 18.2 C 3.73 g/m*3 18.2 C 0 km/h
813 18-05-2010 18:34:02 16.9 C 3.88 g/m*3 16.9 C 0 km/h
814 18-05-2010 18:46:02 16.2 C 4.14 g/m*3 16.2 C 0 km/h
815 18-05-2010 18:58:02 16.4 C 4.33 g/m*3 16.4 C 0 km/h
816 18-05-2010 19:10:02 15.7 C 4.42 g/m*3 15.7 C 0 km/h
817 18-05-2010 19:22:02 16.1 C 4.25 g/m*3 16.1 C 0 km/h
818 18-05-2010 19:34:03 15.3 C 4.31 g/m*3 15.3 C 0 km/h
819 18-05-2010 19:46:02 14.8 C 4.56 g/m*3 14.8 C 0 km/h
820 18-05-2010 19:58:02 14.7 C 4.66 g/m*3 14.7 C 0 km/h
821 18-05-2010 20:10:02 14.5 C 4.6 g/m*3 14.5 C 0 km/h
822 18-05-2010 20:22:01 14.4 C 4.94 g/m*3 14.4 C 0 km/h
823 18-05-2010 20:34:02 14.5 C 4.85 g/m*3 14.5 C 0 km/h
824 18-05-2010 20:46:02 14.1 C 4.85 g/m*3 14.1 C 0 km/h
825 18-05-2010 20:58:02 13.8 C 4.89 g/m*3 13.8 C 0 km/h
Sensor: Nr:Datum:Temp:Abs-Feuchte:Windchill:Wind:
Aussen-T/F 826 18-05-2010 21:10:02 13.5 C 5.03 g/m*3 13.5 C 0 km/h
827 18-05-2010 21:22:02 13.1 C 4.79 g/m*3 13.1 C 0 km/h
828 18-05-2010 21:34:02 12.6 C 4.76 g/m*3 12.6 C 0 km/h
829 18-05-2010 21:46:02 12.4 C 4.48 g/m*3 12.4 C 0 km/h
830 18-05-2010 21:58:02 12.4 C 4.37 g/m*3 12.4 C 0 km/h
831 18-05-2010 22:10:02 12 C 4.37 g/m*3 12 C 0 km/h
832 18-05-2010 22:22:02 11.7 C 4.39 g/m*3 11.7 C 0 km/h
833 18-05-2010 22:35:02 11.5 C 4.44 g/m*3 11.5 C 0 km/h
834 18-05-2010 22:47:02 11.2 C 4.66 g/m*3 11.2 C 0 km/h
835 18-05-2010 22:59:02 10.8 C 4.94 g/m*3 10.8 C 0 km/h
836 18-05-2010 23:11:02 10.5 C 5.04 g/m*3 10.5 C 0 km/h
837 18-05-2010 23:23:02 10.2 C 5.33 g/m*3 10.2 C 0 km/h
838 18-05-2010 23:35:03 9.9 C 5.51 g/m*3 9.9 C 0 km/h
839 18-05-2010 23:47:03 9.7 C 5.53 g/m*3 9.7 C 0 km/h
840 18-05-2010 23:59:03 9.6 C 5.59 g/m*3 9.6 C 0 km/h

Legende:
   Min
   Max


Maximal/Minimal-Werte vom 23.02.2003 - 19.05.2010

Sensor Min Max Avg
Temp
(Aussen-T/F)
-16.4 °C
20-12-2009  01:30:01
36.2 °C
08-08-2003  16:43:01
11.55 °C

Die Daten stammen von einer Davis Vantage Pro 2 Wetter-Station und werden unter Linux mit der Software wview2wettercgi und aufbereitet. Alle Angaben erfolgen ohne Gewähr für ihre Vollständigkeit oder Richtigkeit.
Kontakt: Rainer Krienke krienke@uni-koblenz.de . Meine Webseiten an der Uni Koblenz oder privat.
Version: $Revision: 0.78 $